owner,sensor,date,latitude,longitude,vertical_datum,wind_speed,wind_to_direction,wind_speed_of_gust,qcFlag 
TABS,ioos:station:TABS:H:1,2007-02-01T00:00:00Z,27.8674,-96.5433,4.0,10.10473651,23.87586456,11.44,'11111222,11111222,11111222' 
TABS,ioos:station:TABS:H:1,2007-02-01T00:30:00Z,27.8674,-96.5433,4.0,9.324489262,16.51065841,10.91,'11111222,11111222,11111222' 
TABS,ioos:station:TABS:H:1,2007-02-01T01:00:00Z,27.8674,-96.5433,4.0,9.24591261,19.7869585,10.54,'11111222,11111222,11111222' 
TABS,ioos:station:TABS:H:1,2007-02-01T01:30:00Z,27.8674,-96.5433,4.0,8.152705073,9.103924292,9.77,'11111222,11111222,11111222' 
TABS,ioos:station:TABS:H:1,2007-02-01T02:00:00Z,27.8674,-96.5433,4.0,7.28173743,13.1772024,8.71,'11111222,11111222,11111222' 
TABS,ioos:station:TABS:H:1,2007-02-01T02:30:00Z,27.8674,-96.5433,4.0,7.597058641,22.27731698,8.82,'11111222,11111222,11111222' 
TABS,ioos:station:TABS:H:1,2007-02-01T03:00:00Z,27.8674,-96.5433,4.0,7.177213944,23.1354327,8.43,'11111222,11111222,11111222' 
TABS,ioos:station:TABS:H:1,2007-02-01T03:30:00Z,27.8674,-96.5433,4.0,6.997142274,30.96347367,8.18,'11111222,11111222,11111222' 
TABS,ioos:station:TABS:H:1,2007-02-01T04:00:00Z,27.8674,-96.5433,4.0,6.529104073,41.89558573,7.62,'11111222,11111222,11111222' 
TABS,ioos:station:TABS:H:1,2007-02-01T04:30:00Z,27.8674,-96.5433,4.0,5.700877125,58.48432937,6.79,'11111222,11111222,11111222' 
TABS,ioos:station:TABS:H:1,2007-02-01T05:00:00Z,27.8674,-96.5433,4.0,5.385851836,58.05065295,6.48,'11111222,11111222,11111222' 
TABS,ioos:station:TABS:H:1,2007-02-01T05:30:00Z,27.8674,-96.5433,4.0,5.200240379,43.05160386,5.99,'11111222,11111222,11111222' 
TABS,ioos:station:TABS:H:1,2007-02-01T06:00:00Z,27.8674,-96.5433,4.0,4.59200392,47.02934313,5.35,'11111222,11111222,11111222' 
TABS,ioos:station:TABS:H:1,2007-02-01T06:30:00Z,27.8674,-96.5433,4.0,4.847803626,63.54030143,5.54,'11111222,11111222,11111222' 
TABS,ioos:station:TABS:H:1,2007-02-01T07:00:00Z,27.8674,-96.5433,4.0,5.018545606,52.2848951,5.71,'11111222,11111222,11111222' 
TABS,ioos:station:TABS:H:1,2007-02-01T07:30:00Z,27.8674,-96.5433,4.0,4.447977068,45.63728839,5.35,'11111222,11111222,11111222' 
TABS,ioos:station:TABS:H:1,2007-02-01T08:00:00Z,27.8674,-96.5433,4.0,4.99004008,52.90012702,5.86,'11111222,11111222,11111222' 
TABS,ioos:station:TABS:H:1,2007-02-01T08:30:00Z,27.8674,-96.5433,4.0,4.978533921,44.18588044,5.99,'11111222,11111222,11111222' 
TABS,ioos:station:TABS:H:1,2007-02-01T09:00:00Z,27.8674,-96.5433,4.0,6.599393912,30.606125,7.81,'11111222,11111222,11111222' 
TABS,ioos:station:TABS:H:1,2007-02-01T09:30:00Z,27.8674,-96.5433,4.0,7.341389514,41.24435302,8.58,'11111222,11111222,11111222' 
TABS,ioos:station:TABS:H:1,2007-02-01T10:00:00Z,27.8674,-96.5433,4.0,8.214061115,35.58603606,9.99,'11111222,11111222,11111222' 
TABS,ioos:station:TABS:H:1,2007-02-01T10:30:00Z,27.8674,-96.5433,4.0,8.887907515,34.78048121,10.18,'11111222,11111222,11111222' 
TABS,ioos:station:TABS:H:1,2007-02-01T11:00:00Z,27.8674,-96.5433,4.0,9.514504716,36.27944176,11.04,'11111222,11111222,11111222' 
TABS,ioos:station:TABS:H:1,2007-02-01T11:30:00Z,27.8674,-96.5433,4.0,9.434797295,41.64836108,11.05,'11111222,11111222,11111222' 
TABS,ioos:station:TABS:H:1,2007-02-01T12:00:00Z,27.8674,-96.5433,4.0,9.648554296,35.55119041,11.23,'11111222,11111222,11111222' 
TABS,ioos:station:TABS:H:1,2007-02-01T12:30:00Z,27.8674,-96.5433,4.0,9.236492841,34.41238775,11.0,'11111222,11111222,11111222' 
TABS,ioos:station:TABS:H:1,2007-02-01T13:00:00Z,27.8674,-96.5433,4.0,8.47911552,42.51428817,10.08,'11111222,11111222,11111222' 
TABS,ioos:station:TABS:H:1,2007-02-01T13:30:00Z,27.8674,-96.5433,4.0,7.638690987,39.90130441,9.2,'11111222,11111222,11111222' 
TABS,ioos:station:TABS:H:1,2007-02-01T14:00:00Z,27.8674,-96.5433,4.0,7.780231359,36.427741,9.06,'11111222,11111222,11111222' 
TABS,ioos:station:TABS:H:1,2007-02-01T14:30:00Z,27.8674,-96.5433,4.0,8.367801384,33.34794554,9.72,'11111222,11111222,11111222' 
TABS,ioos:station:TABS:H:1,2007-02-01T15:00:00Z,27.8674,-96.5433,4.0,8.175237,17.65897956,9.75,'11111222,11111222,11111222' 
TABS,ioos:station:TABS:H:1,2007-02-01T15:30:00Z,27.8674,-96.5433,4.0,8.581491712,35.80127453,10.04,'11111222,11111222,11111222' 
TABS,ioos:station:TABS:H:1,2007-02-01T16:00:00Z,27.8674,-96.5433,4.0,7.427765478,40.35835434,8.58,'11111222,11111222,11111222' 
TABS,ioos:station:TABS:H:1,2007-02-01T16:30:00Z,27.8674,-96.5433,4.0,7.282726138,18.40981656,8.62,'11111222,11111222,11111222' 
TABS,ioos:station:TABS:H:1,2007-02-01T17:00:00Z,27.8674,-96.5433,4.0,7.294449945,27.16195254,8.58,'11111222,11111222,11111222' 
TABS,ioos:station:TABS:H:1,2007-02-01T17:30:00Z,27.8674,-96.5433,4.0,6.140301296,26.81515856,7.51,'11111222,11111222,11111222' 
TABS,ioos:station:TABS:H:1,2007-02-01T18:00:00Z,27.8674,-96.5433,4.0,5.449192601,51.9310249,6.48,'11111222,11111222,11111222' 
TABS,ioos:station:TABS:H:1,2007-02-01T18:30:00Z,27.8674,-96.5433,4.0,5.372196944,23.94056471,6.43,'11111222,11111222,11111222' 
TABS,ioos:station:TABS:H:1,2007-02-01T19:00:00Z,27.8674,-96.5433,4.0,5.913391582,15.79874845,7.06,'11111222,11111222,11111222' 
TABS,ioos:station:TABS:H:1,2007-02-01T19:30:00Z,27.8674,-96.5433,4.0,4.621536541,24.95670753,5.58,'11111222,11111222,11111222' 
TABS,ioos:station:TABS:H:1,2007-02-01T20:00:00Z,27.8674,-96.5433,4.0,4.943278264,14.76691578,5.85,'11111222,11111222,11111222' 
TABS,ioos:station:TABS:H:1,2007-02-01T20:30:00Z,27.8674,-96.5433,4.0,4.801770507,12.38620274,5.89,'11111222,11111222,11111222' 
TABS,ioos:station:TABS:H:1,2007-02-01T21:00:00Z,27.8674,-96.5433,4.0,4.280490626,21.22945342,5.85,'11111222,11111222,11111222' 
TABS,ioos:station:TABS:H:1,2007-02-01T21:30:00Z,27.8674,-96.5433,4.0,6.148333107,2.983182597,7.27,'11111222,11111222,11111222' 
TABS,ioos:station:TABS:H:1,2007-02-01T22:00:00Z,27.8674,-96.5433,4.0,7.421320637,1.0807112,9.03,'11111222,11111222,11111222' 
TABS,ioos:station:TABS:H:1,2007-02-01T22:30:00Z,27.8674,-96.5433,4.0,5.080472419,7.236694644,6.53,'11111222,11111222,11111222' 
TABS,ioos:station:TABS:H:1,2007-02-01T23:00:00Z,27.8674,-96.5433,4.0,3.524329724,59.28682319,4.63,'11111222,11111222,11111222' 
TABS,ioos:station:TABS:H:1,2007-02-01T23:30:00Z,27.8674,-96.5433,4.0,3.919502519,76.42427644,5.02,'11111222,11111222,11111222' 
TABS,ioos:station:TABS:H:1,2007-02-02T00:00:00Z,27.8674,-96.5433,4.0,3.572408151,53.99587325,4.77,'11111222,11111222,11111222' 
TABS,ioos:station:TABS:H:1,2007-02-02T00:30:00Z,27.8674,-96.5433,4.0,2.987607739,51.25000927,4.15,'11111222,11111222,11111222' 
TABS,ioos:station:TABS:H:1,2007-02-02T01:00:00Z,27.8674,-96.5433,4.0,3.750893227,47.37662957,4.97,'11111222,11111222,11111222' 
TABS,ioos:station:TABS:H:1,2007-02-02T01:30:00Z,27.8674,-96.5433,4.0,4.048826991,61.8522398,5.03,'11111222,11111222,11111222' 
TABS,ioos:station:TABS:H:1,2007-02-02T02:00:00Z,27.8674,-96.5433,4.0,4.120885827,70.72926269,5.02,'11111222,11111222,11111222' 
TABS,ioos:station:TABS:H:1,2007-02-02T02:30:00Z,27.8674,-96.5433,4.0,3.970302255,80.86942395,5.09,'11111222,11111222,11111222' 
TABS,ioos:station:TABS:H:1,2007-02-02T03:00:00Z,27.8674,-96.5433,4.0,3.842525211,94.6278399,4.73,'11111222,11111222,11111222' 
TABS,ioos:station:TABS:H:1,2007-02-02T03:30:00Z,27.8674,-96.5433,4.0,3.371305385,79.05630685,4.42,'11111222,11111222,11111222' 
TABS,ioos:station:TABS:H:1,2007-02-02T04:00:00Z,27.8674,-96.5433,4.0,3.220062111,90.35628992,4.39,'11111222,11111222,11111222' 
TABS,ioos:station:TABS:H:1,2007-02-02T04:30:00Z,27.8674,-96.5433,4.0,3.324484923,84.64912881,4.19,'11111222,11111222,11111222' 
TABS,ioos:station:TABS:H:1,2007-02-02T05:00:00Z,27.8674,-96.5433,4.0,7.893313626,35.82428197,10.57,'11111222,11111222,11111222' 
TABS,ioos:station:TABS:H:1,2007-02-02T05:30:00Z,27.8674,-96.5433,4.0,7.927376615,44.23306219,9.01,'11111222,11111222,11111222' 
TABS,ioos:station:TABS:H:1,2007-02-02T06:00:00Z,27.8674,-96.5433,4.0,7.460247985,45.48845047,9.1,'11111222,11111222,11111222' 
TABS,ioos:station:TABS:H:1,2007-02-02T06:30:00Z,27.8674,-96.5433,4.0,5.926617923,49.10477323,7.72,'11111222,11111222,11111222' 
TABS,ioos:station:TABS:H:1,2007-02-02T07:00:00Z,27.8674,-96.5433,4.0,6.423581555,46.76595067,7.63,'11111222,11111222,11111222' 
TABS,ioos:station:TABS:H:1,2007-02-02T07:30:00Z,27.8674,-96.5433,4.0,5.572503926,50.82601272,7.57,'11111222,11111222,11111222' 
TABS,ioos:station:TABS:H:1,2007-02-02T08:00:00Z,27.8674,-96.5433,4.0,5.016024322,46.8577067,6.7,'11111222,11111222,11111222' 
TABS,ioos:station:TABS:H:1,2007-02-02T08:30:00Z,27.8674,-96.5433,4.0,4.427154843,48.38763237,6.04,'11111222,11111222,11111222' 
TABS,ioos:station:TABS:H:1,2007-02-02T09:00:00Z,27.8674,-96.5433,4.0,4.227114855,42.02720323,5.74,'11111222,11111222,11111222' 
TABS,ioos:station:TABS:H:1,2007-02-02T09:30:00Z,27.8674,-96.5433,4.0,5.65642997,10.59453048,6.82,'11111222,11111222,11111222' 
TABS,ioos:station:TABS:H:1,2007-02-02T10:00:00Z,27.8674,-96.5433,4.0,6.027644648,20.38890664,7.72,'11111222,11111222,11111222' 
TABS,ioos:station:TABS:H:1,2007-02-02T10:30:00Z,27.8674,-96.5433,4.0,6.848430477,11.53940197,8.46,'11111222,11111222,11111222' 
TABS,ioos:station:TABS:H:1,2007-02-02T11:00:00Z,27.8674,-96.5433,4.0,8.983629556,10.2589762,10.63,'11111222,11111222,11111222' 
TABS,ioos:station:TABS:H:1,2007-02-02T11:30:00Z,27.8674,-96.5433,4.0,9.396685586,12.03915613,10.96,'11111222,11111222,11111222' 
TABS,ioos:station:TABS:H:1,2007-02-02T12:00:00Z,27.8674,-96.5433,4.0,10.51695774,16.57375854,12.34,'11111222,11111222,11111222' 
TABS,ioos:station:TABS:H:1,2007-02-02T12:30:00Z,27.8674,-96.5433,4.0,12.67073794,14.62823883,14.77,'11111222,11111222,11111222' 
TABS,ioos:station:TABS:H:1,2007-02-02T13:00:00Z,27.8674,-96.5433,4.0,12.41264678,17.00406164,14.78,'11111222,11111222,11111222' 
TABS,ioos:station:TABS:H:1,2007-02-02T13:30:00Z,27.8674,-96.5433,4.0,11.11631684,17.70122066,13.35,'11111222,11111222,11111222' 
TABS,ioos:station:TABS:H:1,2007-02-02T14:00:00Z,27.8674,-96.5433,4.0,11.29892915,19.81388724,13.51,'11111222,11111222,11111222' 
TABS,ioos:station:TABS:H:1,2007-02-02T14:30:00Z,27.8674,-96.5433,4.0,11.23023152,25.92590501,13.19,'11111222,11111222,11111222' 
TABS,ioos:station:TABS:H:1,2007-02-02T15:00:00Z,27.8674,-96.5433,4.0,10.35443866,29.63478705,12.5,'11111222,11111222,11111222' 
TABS,ioos:station:TABS:H:1,2007-02-02T15:30:00Z,27.8674,-96.5433,4.0,10.35285951,24.90629284,12.05,'11111222,11111222,11111222' 
TABS,ioos:station:TABS:H:1,2007-02-02T16:00:00Z,27.8674,-96.5433,4.0,10.70358818,22.05959299,12.84,'11111222,11111222,11111222' 
TABS,ioos:station:TABS:H:1,2007-02-02T16:30:00Z,27.8674,-96.5433,4.0,9.823283565,21.81197898,11.66,'11111222,11111222,11111222' 
TABS,ioos:station:TABS:H:1,2007-02-02T17:00:00Z,27.8674,-96.5433,4.0,9.821328831,24.73820166,11.56,'11111222,11111222,11111222' 
TABS,ioos:station:TABS:H:1,2007-02-02T17:30:00Z,27.8674,-96.5433,4.0,10.15387611,21.61253834,11.69,'11111222,11111222,11111222' 
TABS,ioos:station:TABS:H:1,2007-02-02T18:00:00Z,27.8674,-96.5433,4.0,10.90487047,19.3319435,12.93,'11111222,11111222,11111222' 
TABS,ioos:station:TABS:H:1,2007-02-02T18:30:00Z,27.8674,-96.5433,4.0,11.298553,16.55813593,13.21,'11111222,11111222,11111222' 
TABS,ioos:station:TABS:H:1,2007-02-02T19:00:00Z,27.8674,-96.5433,4.0,10.70598431,11.25721743,12.92,'11111222,11111222,11111222' 
TABS,ioos:station:TABS:H:1,2007-02-02T19:30:00Z,27.8674,-96.5433,4.0,9.75,16.25995623,11.83,'11111222,11111222,11111222' 
TABS,ioos:station:TABS:H:1,2007-02-02T20:00:00Z,27.8674,-96.5433,4.0,9.130328581,17.66074504,11.47,'11111222,11111222,11111222' 
TABS,ioos:station:TABS:H:1,2007-02-02T20:30:00Z,27.8674,-96.5433,4.0,8.771271288,23.23263457,10.7,'11111222,11111222,11111222' 
TABS,ioos:station:TABS:H:1,2007-02-02T21:00:00Z,27.8674,-96.5433,4.0,8.665079342,24.25762746,10.65,'11111222,11111222,11111222' 
TABS,ioos:station:TABS:H:1,2007-02-02T21:30:00Z,27.8674,-96.5433,4.0,8.949245778,18.43469526,10.95,'11111222,11111222,11111222' 
TABS,ioos:station:TABS:H:1,2007-02-02T22:00:00Z,27.8674,-96.5433,4.0,8.683651306,18.60161582,10.95,'11111222,11111222,11111222' 
TABS,ioos:station:TABS:H:1,2007-02-02T22:30:00Z,27.8674,-96.5433,4.0,7.856748691,23.95481803,10.15,'11111222,11111222,11111222' 
TABS,ioos:station:TABS:H:1,2007-02-02T23:00:00Z,27.8674,-96.5433,4.0,7.340388273,19.2492704,9.53,'11111222,11111222,11111222' 
TABS,ioos:station:TABS:H:1,2007-02-02T23:30:00Z,27.8674,-96.5433,4.0,8.396618367,14.20149841,10.38,'11111222,11111222,11111222' 
TABS,ioos:station:TABS:H:1,2007-02-03T00:00:00Z,27.8674,-96.5433,4.0,7.01849699,22.80171121,9.31,'11111222,11111222,11111222' 
TABS,ioos:station:TABS:H:1,2007-02-03T00:30:00Z,27.8674,-96.5433,4.0,7.005319407,27.91825532,9.07,'11111222,11111222,11111222' 
TABS,ioos:station:TABS:H:1,2007-02-03T01:00:00Z,27.8674,-96.5433,4.0,8.157352512,26.187839,10.45,'11111222,11111222,11111222' 
TABS,ioos:station:TABS:H:1,2007-02-03T01:30:00Z,27.8674,-96.5433,4.0,9.255598306,29.44514942,12.13,'11111222,11111222,11111222' 
TABS,ioos:station:TABS:H:1,2007-02-03T02:00:00Z,27.8674,-96.5433,4.0,10.25524256,29.56442689,12.11,'11111222,11111222,11111222' 
TABS,ioos:station:TABS:H:1,2007-02-03T02:30:00Z,27.8674,-96.5433,4.0,9.659917184,26.83003432,11.64,'11111222,11111222,11111222' 
TABS,ioos:station:TABS:H:1,2007-02-03T03:00:00Z,27.8674,-96.5433,4.0,10.43805537,31.60362184,12.61,'11111222,11111222,11111222' 
TABS,ioos:station:TABS:H:1,2007-02-03T03:30:00Z,27.8674,-96.5433,4.0,9.957851174,31.61475678,12.42,'11111222,11111222,11111222' 
TABS,ioos:station:TABS:H:1,2007-02-03T04:00:00Z,27.8674,-96.5433,4.0,10.09175901,29.307991,12.3,'11111222,11111222,11111222' 
TABS,ioos:station:TABS:H:1,2007-02-03T04:30:00Z,27.8674,-96.5433,4.0,10.701869,29.43913365,12.65,'11111222,11111222,11111222' 
TABS,ioos:station:TABS:H:1,2007-02-03T05:00:00Z,27.8674,-96.5433,4.0,10.8710671,19.61811461,13.26,'11111222,11111222,11111222' 
TABS,ioos:station:TABS:H:1,2007-02-03T05:30:00Z,27.8674,-96.5433,4.0,10.65627515,24.32799248,12.78,'11111222,11111222,11111222' 
TABS,ioos:station:TABS:H:1,2007-02-03T06:00:00Z,27.8674,-96.5433,4.0,10.6349048,32.793206,13.11,'11111222,11111222,11111222' 
TABS,ioos:station:TABS:H:1,2007-02-03T06:30:00Z,27.8674,-96.5433,4.0,10.72509674,42.2410377,13.07,'11111222,11111222,11111222' 
TABS,ioos:station:TABS:H:1,2007-02-03T07:00:00Z,27.8674,-96.5433,4.0,10.02045907,47.26443356,12.52,'11111222,11111222,11111222' 
TABS,ioos:station:TABS:H:1,2007-02-03T07:30:00Z,27.8674,-96.5433,4.0,9.845938249,47.59289824,12.26,'11111222,11111222,11111222' 
TABS,ioos:station:TABS:H:1,2007-02-03T08:00:00Z,27.8674,-96.5433,4.0,10.06289223,48.78696905,12.87,'11111222,11111222,11111222' 
TABS,ioos:station:TABS:H:1,2007-02-03T08:30:00Z,27.8674,-96.5433,4.0,10.49237819,47.85822637,12.41,'11111222,11111222,11111222' 
TABS,ioos:station:TABS:H:1,2007-02-03T09:00:00Z,27.8674,-96.5433,4.0,9.596817181,45.97070397,12.11,'11111222,11111222,11111222' 
TABS,ioos:station:TABS:H:1,2007-02-03T09:30:00Z,27.8674,-96.5433,4.0,10.84605919,50.0114807,13.64,'11111222,11111222,11111222' 
TABS,ioos:station:TABS:H:1,2007-02-03T10:00:00Z,27.8674,-96.5433,4.0,8.909438815,55.47126432,11.25,'11111222,11111222,11111222' 
TABS,ioos:station:TABS:H:1,2007-02-03T10:30:00Z,27.8674,-96.5433,4.0,8.107342351,56.87801976,10.36,'11111222,11111222,11111222' 
TABS,ioos:station:TABS:H:1,2007-02-03T11:00:00Z,27.8674,-96.5433,4.0,7.86288751,56.41064075,10.51,'11111222,11111222,11111222' 
TABS,ioos:station:TABS:H:1,2007-02-03T11:30:00Z,27.8674,-96.5433,4.0,7.303601851,55.37396794,10.36,'11111222,11111222,11111222' 
TABS,ioos:station:TABS:H:1,2007-02-03T12:00:00Z,27.8674,-96.5433,4.0,7.887838741,56.26929805,9.92,'11111222,11111222,11111222' 
TABS,ioos:station:TABS:H:1,2007-02-03T12:30:00Z,27.8674,-96.5433,4.0,8.232350819,52.60081414,10.86,'11111222,11111222,11111222' 
TABS,ioos:station:TABS:H:1,2007-02-03T13:00:00Z,27.8674,-96.5433,4.0,8.285270062,50.14097578,9.86,'11111222,11111222,11111222' 
TABS,ioos:station:TABS:H:1,2007-02-03T13:30:00Z,27.8674,-96.5433,4.0,7.173485903,51.9635645,9.21,'11111222,11111222,11111222' 
TABS,ioos:station:TABS:H:1,2007-02-03T14:00:00Z,27.8674,-96.5433,4.0,7.072715179,56.82636058,9.48,'11111222,11111222,11111222' 
TABS,ioos:station:TABS:H:1,2007-02-03T14:30:00Z,27.8674,-96.5433,4.0,7.552648542,54.64717823,9.33,'11111222,11111222,11111222' 
TABS,ioos:station:TABS:H:1,2007-02-03T15:00:00Z,27.8674,-96.5433,4.0,7.190771864,50.6429894,9.21,'11111222,11111222,11111222' 
TABS,ioos:station:TABS:H:1,2007-02-03T15:30:00Z,27.8674,-96.5433,4.0,7.238929479,54.04793924,8.91,'11111222,11111222,11111222' 
TABS,ioos:station:TABS:H:1,2007-02-03T16:00:00Z,27.8674,-96.5433,4.0,6.242379354,57.76076963,7.85,'11111222,11111222,11111222' 
TABS,ioos:station:TABS:H:1,2007-02-03T16:30:00Z,27.8674,-96.5433,4.0,5.999408304,66.93898348,7.96,'11111222,11111222,11111222' 
TABS,ioos:station:TABS:H:1,2007-02-03T17:00:00Z,27.8674,-96.5433,4.0,5.739146278,59.99472838,7.56,'11111222,11111222,11111222' 
TABS,ioos:station:TABS:H:1,2007-02-03T17:30:00Z,27.8674,-96.5433,4.0,5.250409508,63.04416578,6.81,'11111222,11111222,11111222' 
TABS,ioos:station:TABS:H:1,2007-02-03T18:00:00Z,27.8674,-96.5433,4.0,5.636239881,53.6583853,7.83,'11111222,11111222,11111222' 
TABS,ioos:station:TABS:H:1,2007-02-03T18:30:00Z,27.8674,-96.5433,4.0,8.397380544,30.16775197,9.9,'11111222,11111222,11111222' 
TABS,ioos:station:TABS:H:1,2007-02-03T19:00:00Z,27.8674,-96.5433,4.0,8.074212036,33.02060502,9.75,'11111222,11111222,11111222' 
TABS,ioos:station:TABS:H:1,2007-02-03T19:30:00Z,27.8674,-96.5433,4.0,8.561804716,33.61553713,10.06,'11111222,11111222,11111222' 
TABS,ioos:station:TABS:H:1,2007-02-03T20:00:00Z,27.8674,-96.5433,4.0,8.452366533,39.09355701,10.2,'11111222,11111222,11111222' 
TABS,ioos:station:TABS:H:1,2007-02-03T20:30:00Z,27.8674,-96.5433,4.0,7.757609168,38.03662779,9.52,'11111222,11111222,11111222' 
TABS,ioos:station:TABS:H:1,2007-02-03T21:00:00Z,27.8674,-96.5433,4.0,6.59831039,37.42534609,8.06,'11111222,11111222,11111222' 
TABS,ioos:station:TABS:H:1,2007-02-03T21:30:00Z,27.8674,-96.5433,4.0,6.054766717,24.49067647,7.36,'11111222,11111222,11111222' 
TABS,ioos:station:TABS:H:1,2007-02-03T22:00:00Z,27.8674,-96.5433,4.0,3.615314647,100.0359189,5.7,'11111222,11111222,11111222' 
TABS,ioos:station:TABS:H:1,2007-02-03T22:30:00Z,27.8674,-96.5433,4.0,3.825506502,97.81278675,5.29,'11111222,11111222,11111222' 
TABS,ioos:station:TABS:H:1,2007-02-03T23:00:00Z,27.8674,-96.5433,4.0,3.819070568,77.60098084,5.16,'11111222,11111222,11111222' 
TABS,ioos:station:TABS:H:1,2007-02-03T23:30:00Z,27.8674,-96.5433,4.0,4.612862452,66.49116333,5.67,'11111222,11111222,11111222' 
TABS,ioos:station:TABS:H:1,2007-02-04T00:00:00Z,27.8674,-96.5433,4.0,6.139006434,46.18767259,9.68,'11111222,11111222,11111222' 
TABS,ioos:station:TABS:H:1,2007-02-04T00:30:00Z,27.8674,-96.5433,4.0,7.738552836,39.86214607,9.39,'11111222,11111222,11111222' 
TABS,ioos:station:TABS:H:1,2007-02-04T01:00:00Z,27.8674,-96.5433,4.0,7.681380084,46.37114128,8.92,'11111222,11111222,11111222' 
TABS,ioos:station:TABS:H:1,2007-02-04T01:30:00Z,27.8674,-96.5433,4.0,7.661135686,42.036934,8.75,'11111222,11111222,11111222' 
TABS,ioos:station:TABS:H:1,2007-02-04T02:00:00Z,27.8674,-96.5433,4.0,7.48738272,41.58874733,8.86,'11111222,11111222,11111222' 
TABS,ioos:station:TABS:H:1,2007-02-04T02:30:00Z,27.8674,-96.5433,4.0,6.802367235,41.30447242,8.1,'11111222,11111222,11111222' 
TABS,ioos:station:TABS:H:1,2007-02-04T03:00:00Z,27.8674,-96.5433,4.0,6.225431712,50.73616628,7.23,'11111222,11111222,11111222' 
TABS,ioos:station:TABS:H:1,2007-02-04T03:30:00Z,27.8674,-96.5433,4.0,5.942735061,41.65725149,7.37,'11111222,11111222,11111222' 
TABS,ioos:station:TABS:H:1,2007-02-04T04:00:00Z,27.8674,-96.5433,4.0,5.511415426,38.88680545,6.93,'11111222,11111222,11111222' 
TABS,ioos:station:TABS:H:1,2007-02-04T04:30:00Z,27.8674,-96.5433,4.0,3.23396042,92.83627731,5.49,'11111222,11111222,11111222' 
TABS,ioos:station:TABS:H:1,2007-02-04T05:00:00Z,27.8674,-96.5433,4.0,6.365924913,32.81605622,7.77,'11111222,11111222,11111222' 
TABS,ioos:station:TABS:H:1,2007-02-04T05:30:00Z,27.8674,-96.5433,4.0,5.985323717,33.34462797,7.02,'11111222,11111222,11111222' 
TABS,ioos:station:TABS:H:1,2007-02-04T06:00:00Z,27.8674,-96.5433,4.0,5.966648976,37.71466486,6.83,'11111222,11111222,11111222' 
TABS,ioos:station:TABS:H:1,2007-02-04T06:30:00Z,27.8674,-96.5433,4.0,5.871567082,33.96042174,7.02,'11111222,11111222,11111222' 
TABS,ioos:station:TABS:H:1,2007-02-04T07:00:00Z,27.8674,-96.5433,4.0,4.666219026,32.3955665,5.74,'11111222,11111222,11111222' 
TABS,ioos:station:TABS:H:1,2007-02-04T07:30:00Z,27.8674,-96.5433,4.0,3.024053571,126.5291909,3.8,'11111222,11111222,11111222' 
TABS,ioos:station:TABS:H:1,2007-02-04T08:00:00Z,27.8674,-96.5433,4.0,2.595553891,136.0930157,3.29,'11111222,11111222,11111222' 
TABS,ioos:station:TABS:H:1,2007-02-04T08:30:00Z,27.8674,-96.5433,4.0,2.718915225,122.229103,3.53,'11111222,11111222,11111222' 
TABS,ioos:station:TABS:H:1,2007-02-04T09:00:00Z,27.8674,-96.5433,4.0,1.5867577,98.33476595,2.62,'11111222,11111222,11111222' 
TABS,ioos:station:TABS:H:1,2007-02-04T09:30:00Z,27.8674,-96.5433,4.0,5.517979703,28.70133816,7.34,'11111222,11111222,11111222' 
TABS,ioos:station:TABS:H:1,2007-02-04T10:00:00Z,27.8674,-96.5433,4.0,7.213355668,35.12187112,8.43,'11111222,11111222,11111222' 
TABS,ioos:station:TABS:H:1,2007-02-04T10:30:00Z,27.8674,-96.5433,4.0,7.051248116,34.65888836,8.5,'11111222,11111222,11111222' 
TABS,ioos:station:TABS:H:1,2007-02-04T11:00:00Z,27.8674,-96.5433,4.0,7.320341522,40.45666802,8.72,'11111222,11111222,11111222' 
TABS,ioos:station:TABS:H:1,2007-02-04T11:30:00Z,27.8674,-96.5433,4.0,7.450060402,41.84399373,8.89,'11111222,11111222,11111222' 
TABS,ioos:station:TABS:H:1,2007-02-04T12:00:00Z,27.8674,-96.5433,4.0,7.494864909,41.53800339,8.6,'11111222,11111222,11111222' 
TABS,ioos:station:TABS:H:1,2007-02-04T12:30:00Z,27.8674,-96.5433,4.0,8.176221621,43.71124515,9.33,'11111222,11111222,11111222' 
TABS,ioos:station:TABS:H:1,2007-02-04T13:00:00Z,27.8674,-96.5433,4.0,8.41202116,46.87834649,9.86,'11111222,11111222,11111222' 
TABS,ioos:station:TABS:H:1,2007-02-04T13:30:00Z,27.8674,-96.5433,4.0,7.736905066,51.55960526,8.87,'11111222,11111222,11111222' 
TABS,ioos:station:TABS:H:1,2007-02-04T14:00:00Z,27.8674,-96.5433,4.0,7.458900723,51.53180572,9.01,'11111222,11111222,11111222' 
TABS,ioos:station:TABS:H:1,2007-02-04T14:30:00Z,27.8674,-96.5433,4.0,7.203367268,48.31989899,8.83,'11111222,11111222,11111222' 
TABS,ioos:station:TABS:H:1,2007-02-04T15:00:00Z,27.8674,-96.5433,4.0,7.255590948,45.78144772,8.39,'11111222,11111222,11111222' 
TABS,ioos:station:TABS:H:1,2007-02-04T15:30:00Z,27.8674,-96.5433,4.0,6.875027273,54.83012855,8.14,'11111222,11111222,11111222' 
TABS,ioos:station:TABS:H:1,2007-02-04T16:00:00Z,27.8674,-96.5433,4.0,6.257555433,60.19798278,7.49,'11111222,11111222,11111222' 
TABS,ioos:station:TABS:H:1,2007-02-04T16:30:00Z,27.8674,-96.5433,4.0,6.212020605,59.6369868,7.33,'11111222,11111222,11111222' 
TABS,ioos:station:TABS:H:1,2007-02-04T17:00:00Z,27.8674,-96.5433,4.0,6.167860245,64.3485837,7.68,'11111222,11111222,11111222' 
TABS,ioos:station:TABS:H:1,2007-02-04T17:30:00Z,27.8674,-96.5433,4.0,6.768256792,62.07156681,7.84,'11111222,11111222,11111222' 
TABS,ioos:station:TABS:H:1,2007-02-04T18:00:00Z,27.8674,-96.5433,4.0,6.637597457,66.56302073,7.94,'11111222,11111222,11111222' 
TABS,ioos:station:TABS:H:1,2007-02-04T18:30:00Z,27.8674,-96.5433,4.0,6.85860773,65.07863209,8.37,'11111222,11111222,11111222' 
TABS,ioos:station:TABS:H:1,2007-02-04T19:00:00Z,27.8674,-96.5433,4.0,6.592730845,62.54063283,8.09,'11111222,11111222,11111222' 
TABS,ioos:station:TABS:H:1,2007-02-04T19:30:00Z,27.8674,-96.5433,4.0,5.934854674,76.05702695,7.7,'11111222,11111222,11111222' 
TABS,ioos:station:TABS:H:1,2007-02-04T20:00:00Z,27.8674,-96.5433,4.0,6.040993296,79.5081266,7.23,'11111222,11111222,11111222' 
TABS,ioos:station:TABS:H:1,2007-02-04T20:30:00Z,27.8674,-96.5433,4.0,5.542355095,75.26131251,6.89,'11111222,11111222,11111222' 